FENGYUN 1C DEB, 31017

Orbit data source: Space-Track

FENGYUN 1C DEB, 31017 is space debris in SSO originally from a launch on Mon, 10 May 1999 UTC launched from the Taiyaun Space Center, China (TSC). Fengyun 1C debris stems from the Chinese weather satellite Fengyun-1C, which was intentionally destroyed by a Chinese anti-satellite missile in 2007. This event dramatically increased the amount of space debris, with thousands of trackable fragments posing hazards to satellites and human spaceflight. The Fengyun 1C debris cloud has become a focal point in discussions about space sustainability and the need for international regulations to prevent the creation of new debris.

Loading next visibility...
Identifier
31017, 1999-025BDK
Orbit
SSO
Country
Flag of CNCN / PRC
Related business
Manufacturer
Unknown
Mission
Spacecraft
Bus & Motor
Unknown
Mass
Unknown
Launch date (UTC)
1999-05-10 (27 years ago)
Launch vehicle
Unknown
Launch site
Taiyaun Space Center, China (TSC)
Object type
Payload
Rocket body
Debris
Shape & HBR
Unknown shape, 0.1 m
Radar Cross Section
Small (<0.1 m²)

Expand to show TLE details & history
Last TLE update: 2 days ago

TLE from 2 days ago
0 FENGYUN 1C DEB
1 31017U 99025BDK 26177.22102411  .00000321  00000-0  19725-3 0  9996
2 31017  98.6962 161.4313 0113228 155.5437 224.2938 14.09066080990495
Epoch: 2026-06-26T05:18Z
TLE epoch observation values (Epoch: 2026-06-26T05:18:16.483Z)
Latitude
18.71098°
Longitude
164.55597°
Altitude
924.101 km
Speed
7.361 km/s
True Right ascension
10h 33m 54s
True Declination
18° 36' 33"
Sunlit
Object was in daylight at epoch
Visualization orbit readout
Latitude
Unknown
Longitude
Unknown
Altitude
Unknown
Speed
Unknown
Apparent Right ascension
Unknown
Apparent Declination
Unknown
Sunlit
N/A
Visualization observer readout
Local Sidereal Time
06:55:53
Azimuth
Unknown
Elevation
Unknown
Doppler factor
Unknown
Orbital elements
Apogee altitude
941.694 km
Perigee altitude
777.788 km
Semi-major axis
7,237.878 km
Eccentricity
0.01132
Inclination
98.6962°
RAAN
161.4313°
Arg. of periapsis
155.5437°
True anomaly
223.39684°
Mean anomaly
224.2938°
Eccentric anomaly
223.84441°
Mean motion
3.52473 °/min
Orbital period
102.14 mins
BSTAR
0.00019725
Loading maneuver chart data...
Computing Atmospheric mass density...

Documentation

Showing up to 5 results
|